FW1286 Weather Reports


Display with metric or nautical units.
time (UTC)temp
F
wind
direction
speed
MPH
gust
MPH
rain 1hr
in
rain 24hr
in
rain mn
in
humidity
%
barometer
mb
20260504070347 63 113 5.0 9.0 0.00 0.00 0.00 76 1015.3
20260504060212 64 112 4.0 9.0 0.00 0.00 0.00 72 1016.3
20260504050141 65 109 4.0 8.0 0.00 0.00 0.00 66 1016.4
20260504045112 65 96 3.0 8.0 0.00 0.00 0.00 64 1016.6
20260504044133 65 128 4.0 8.0 0.00 0.00 0.00 63 1016.5
20260504043121 64 96 2.0 5.0 0.00 0.00 0.00 64 1016.7
20260504042100 64 115 1.0 4.0 0.00 0.00 0.00 65 1016.7
20260504041058 64 109 1.0 4.0 0.00 0.00 0.00 65 1016.6
20260504040030 64 102 1.0 5.0 0.00 0.00 0.00 65 1016.7
20260504035001 64 100 1.0 5.0 0.00 0.00 0.00 65 1016.7
20260504033947 64 104 0.0 3.0 0.00 0.00 0.00 65 1016.8
20260504032954 64 88 0.0 1.0 0.00 0.00 0.00 64 1016.9
20260504031943 64 88 0.0 1.0 0.00 0.00 0.00 64 1016.8
20260504030926 64 88 0.0 4.0 0.00 0.00 0.00 63 1016.8
20260504025907 65 88 0.0 4.0 0.00 0.00 0.00 62 1017.0
20260504024844 65 103 0.0 3.0 0.00 0.00 0.00 61 1017.1
20260504023819 66 103 1.0 3.0 0.00 0.00 0.00 60 1016.8
20260504022753 66 103 0.0 3.0 0.00 0.00 0.00 59 1016.8
20260504021817 66 105 0.0 3.0 0.00 0.00 0.00 58 1016.6
20260504020808 67 91 1.0 4.0 0.00 0.00 0.00 58 1016.6
20260504015803 67 76 1.0 4.0 0.00 0.00 0.00 57 1016.6
20260504014748 68 88 1.0 4.0 0.00 0.00 0.00 56 1016.4
20260504013715 68 87 0.0 4.0 0.00 0.00 0.00 55 1016.3
20260504012701 69 82 1.0 4.0 0.00 0.00 0.00 55 1016.3
20260504011637 69 85 1.0 4.0 0.00 0.00 0.00 54 1016.1
20260504010646 70 106 0.0 5.0 0.00 0.00 0.00 55 1016.3
20260504005629 71 84 1.0 6.0 0.00 0.00 0.00 54 1016.3
20260504003435 72 115 2.0 6.0 0.00 0.00 0.00 51 1016.3
20260504002417 73 120 1.0 5.0 0.00 0.00 0.00 51 1016.2
20260504001347 74 124 2.0 7.0 0.00 0.00 0.00 50 1016.3
20260504000408 74 107 3.0 7.0 0.00 0.00 0.00 49 1016.4
20260503235347 74 126 2.0 7.0 0.00 0.00 0.00 48 1016.8
20260503233300 75 134 3.0 6.0 0.00 0.00 0.00 46 1016.7
20260503232307 75 102 3.0 9.0 0.00 0.00 0.00 45 1016.8
20260503231232 76 142 4.0 10.0 0.00 0.00 0.00 43 1016.9
20260503230207 77 128 5.0 10.0 0.00 0.00 0.00 42 1016.7
20260503225152 78 162 5.0 9.0 0.00 0.00 0.00 40 1016.7
20260503224140 78 164 5.0 11.0 0.00 0.00 0.00 40 1016.8
20260503221957 78 163 5.0 12.0 0.00 0.00 0.00 42 1017.3
20260503220931 78 138 5.0 15.0 0.00 0.00 0.00 42 1017.4
20260503215954 78 90 6.0 15.0 0.00 0.00 0.00 41 1017.4
20260503214950 78 125 6.0 14.0 0.00 0.00 0.00 40 1017.4
20260503213922 78 104 6.0 14.0 0.00 0.00 0.00 39 1018.0
20260503212932 78 148 5.0 14.0 0.00 0.00 0.00 40 1018.2
20260503211910 78 60 6.0 14.0 0.00 0.00 0.00 39 1018.3
20260503210854 78 57 6.0 17.0 0.00 0.00 0.00 40 1018.5
20260503205912 78 106 6.0 17.0 0.00 0.00 0.00 41 1018.6
20260503204919 79 114 7.0 14.0 0.00 0.00 0.00 38 1018.9
20260503203854 79 121 5.0 15.0 0.00 0.00 0.00 41 1018.7
20260503201653 78 117 6.0 13.0 0.00 0.00 0.00 41 1019.3
20260503200639 79 188 5.0 13.0 0.00 0.00 0.00 40 1019.5
20260503195630 78 112 5.0 14.0 0.00 0.00 0.00 45 1019.6
20260503194633 78 128 6.0 14.0 0.00 0.00 0.00 38 1019.7
20260503193634 77 138 5.0 14.0 0.00 0.00 0.00 39 1019.7
20260503192631 78 191 6.0 14.0 0.00 0.00 0.00 42 1020.0
20260503191627 78 140 6.0 15.0 0.00 0.00 0.00 41 1020.1
20260503190606 77 64 6.0 15.0 0.00 0.00 0.00 42 1020.3
20260503185622 77 145 5.0 13.0 0.00 0.00 0.00 41 1020.5
20260503184607 76 148 6.0 13.0 0.00 0.00 0.00 42 1020.6
20260503183611 77 209 5.0 13.0 0.00 0.00 0.00 40 1020.7
20260503181510 77 126 6.0 15.0 0.00 0.00 0.00 40 1021.2
20260503180506 76 96 5.0 12.0 0.00 0.00 0.00 43 1021.4
20260503174330 76 64 5.0 13.0 0.00 0.00 0.00 43 1021.9
20260503173340 75 169 7.0 13.0 0.00 0.00 0.00 44 1022.0
20260503171150 75 147 5.0 10.0 0.00 0.00 0.00 43 1022.4
20260503150548 69 201 4.0 9.0 0.00 0.00 0.00 64 1023.0
20260503131239 54 76 0.0 0.0 0.00 0.00 0.00 94 1022.7
20260503130258 54 76 0.0 0.0 0.00 0.00 0.00 95 1022.7
20260503110647 48 76 0.0 0.0 0.00 0.01 0.00 93 1021.5
20260503090356 50 76 0.0 0.0 0.00 0.01 0.00 92 1021.3
20260503081340 50 76 0.0 0.0 0.00 0.01 0.00 93 1021.3
20260503080352 50 76 0.0 0.0 0.00 0.01 0.00 92 1021.4
20260503072417 51 76 0.0 0.0 0.00 0.01 0.00 91 1021.7